When you browse on this site, cookies collect data to enhance your experience and personalize the content and advertising you see.
Visit our Privacy Policy to learn more. By continuing to use the site, you agree to this use of cookies and data.
  • In Hungary
  • List of Countries
  • For 7 days
  • Water Temperature
  • Satellite Maps
  • Weather Map
  • News
  • Weather Widgets
  • user-avatar
    Login

    Hourly Weather Adrano

    Today, 15 December, Saturday

    Time Temperature Precipitation Wind Pressure Humidity
    00:00 +9°C° 0 mm 2 mps 706 mmHg 82%
    01:00 +8°C° 0 mm 2 mps 706 mmHg 82%
    02:00 +8°C° 0 mm 2 mps 706 mmHg 82%
    03:00 +9°C° 0 mm 1 mps 706 mmHg 81%
    04:00 +9°C° 0 mm 1 mps 706 mmHg 81%
    05:00 +9°C° 0.1 mm 1 mps 706 mmHg 81%
    06:00 +8°C° 0.1 mm 2 mps 707 mmHg 82%
    07:00 +8°C° 0.1 mm 2 mps 707 mmHg 83%
    08:00 +9°C° 0.1 mm 2 mps 707 mmHg 80%
    09:00 +10°C° 0.1 mm 2 mps 708 mmHg 77%
    10:00 +11°C° 0.1 mm 3 mps 709 mmHg 75%
    11:00 +11°C° 0.2 mm 3 mps 709 mmHg 74%
    12:00 +11°C° 0.2 mm 4 mps 709 mmHg 73%
    13:00 +11°C° 0.2 mm 4 mps 709 mmHg 72%
    14:00 +11°C° 0 mm 4 mps 709 mmHg 71%
    15:00 +9°C° 0 mm 5 mps 709 mmHg 70%
    16:00 +8°C° 0 mm 5 mps 709 mmHg 69%
    17:00 +7°C° 0 mm 4 mps 710 mmHg 71%
    18:00 +6°C° 0 mm 4 mps 710 mmHg 73%
    19:00 +5°C° 0 mm 4 mps 710 mmHg 76%
    20:00 +5°C° 0 mm 4 mps 711 mmHg 76%
    21:00 +5°C° 0 mm 4 mps 711 mmHg 77%
    22:00 +4°C° 0 mm 4 mps 711 mmHg 78%
    23:00 +4°C° 0 mm 4 mps 712 mmHg 78%

    Tomorrow, 16 December, Sunday

    Time Temperature Precipitation Wind Pressure Humidity
    00:00 +4°C° 0 mm 4 mps 712 mmHg 79%
    01:00 +4°C° 0 mm 3 mps 712 mmHg 79%
    02:00 +4°C° 0 mm 3 mps 712 mmHg 80%
    03:00 +4°C° 0 mm 3 mps 712 mmHg 80%
    04:00 +4°C° 0 mm 3 mps 712 mmHg 81%
    05:00 +4°C° 0 mm 3 mps 713 mmHg 81%
    06:00 +4°C° 0 mm 3 mps 713 mmHg 81%
    07:00 +4°C° 0 mm 3 mps 714 mmHg 82%
    08:00 +5°C° 0 mm 3 mps 714 mmHg 75%
    09:00 +8°C° 0 mm 3 mps 715 mmHg 68%
    10:00 +9°C° 0 mm 3 mps 716 mmHg 61%
    11:00 +10°C° 0 mm 3 mps 716 mmHg 56%
    12:00 +11°C° 0 mm 3 mps 716 mmHg 51%
    13:00 +12°C° 0 mm 3 mps 715 mmHg 47%
    14:00 +12°C° 0 mm 2 mps 715 mmHg 49%
    15:00 +12°C° 0 mm 2 mps 715 mmHg 52%
    16:00 +10°C° 0 mm 2 mps 715 mmHg 54%
    17:00 +9°C° 0 mm 2 mps 716 mmHg 59%
    18:00 +8°C° 0 mm 2 mps 716 mmHg 63%
    19:00 +8°C° 0 mm 1 mps 716 mmHg 68%
    20:00 +8°C° 0 mm 1 mps 716 mmHg 69%
    21:00 +8°C° 0 mm 1 mps 716 mmHg 70%
    22:00 +8°C° 0 mm 1 mps 716 mmHg 71%
    23:00 +7°C° 0 mm 2 mps 716 mmHg 72%

    Day after tomorrow, 17 December, Monday

    Time Temperature Precipitation Wind Pressure Humidity
    00:00 +7°C° 0 mm 2 mps 715 mmHg 73%
    01:00 +7°C° 0 mm 2 mps 715 mmHg 74%
    02:00 +8°C° 0 mm 2 mps 715 mmHg 76%
    03:00 +8°C° 0 mm 2 mps 715 mmHg 79%
    04:00 +8°C° 0 mm 2 mps 714 mmHg 81%
    05:00 +8°C° 0 mm 3 mps 714 mmHg 82%
    06:00 +8°C° 0 mm 3 mps 714 mmHg 83%
    07:00 +8°C° 0 mm 3 mps 714 mmHg 83%
    08:00 +10°C° 0 mm 3 mps 714 mmHg 77%
    09:00 +12°C° 0 mm 4 mps 715 mmHg 70%
    10:00 +14°C° 0 mm 4 mps 715 mmHg 64%
    11:00 +14°C° 0 mm 5 mps 715 mmHg 61%
    12:00 +15°C° 0 mm 6 mps 714 mmHg 59%
    13:00 +16°C° 0 mm 6 mps 714 mmHg 56%
    14:00 +15°C° 0 mm 6 mps 714 mmHg 60%
    15:00 +14°C° 0 mm 6 mps 713 mmHg 64%
    16:00 +13°C° 0 mm 5 mps 713 mmHg 68%
    17:00 +12°C° 0.2 mm 5 mps 713 mmHg 72%
    18:00 +10°C° 0.2 mm 5 mps 713 mmHg 76%
    19:00 +9°C° 0.2 mm 5 mps 713 mmHg 80%
    20:00 +9°C° 0.2 mm 5 mps 713 mmHg 80%
    21:00 +8°C° 0.2 mm 5 mps 713 mmHg 80%
    22:00 +8°C° 0.2 mm 5 mps 714 mmHg 81%
    23:00 +7°C° 0.1 mm 5 mps 714 mmHg 79%

    18 December, Tuesday

    Time Temperature Precipitation Wind Pressure Humidity
    00:00 +7°C° 0.1 mm 5 mps 713 mmHg 77%
    01:00 +7°C° 0.1 mm 6 mps 713 mmHg 75%
    02:00 +7°C° 0.1 mm 6 mps 713 mmHg 76%
    03:00 +7°C° 0.1 mm 6 mps 713 mmHg 76%
    04:00 +5°C° 0.1 mm 6 mps 713 mmHg 77%
    05:00 +5°C° 0.1 mm 6 mps 713 mmHg 77%
    06:00 +5°C° 0.1 mm 6 mps 713 mmHg 77%
    07:00 +6°C° 0.1 mm 5 mps 714 mmHg 78%
    08:00 +7°C° 0 mm 6 mps 714 mmHg 73%
    09:00 +8°C° 0 mm 6 mps 714 mmHg 69%
    10:00 +8°C° 0 mm 7 mps 715 mmHg 64%
    11:00 +8°C° 0.1 mm 7 mps 715 mmHg 64%
    12:00 +9°C° 0.1 mm 6 mps 715 mmHg 65%
    13:00 +9°C° 0.1 mm 6 mps 715 mmHg 65%
    14:00 +8°C° 0 mm 6 mps 715 mmHg 66%
    15:00 +8°C° 0 mm 6 mps 715 mmHg 66%
    16:00 +7°C° 0 mm 5 mps 715 mmHg 66%
    17:00 +7°C° 0 mm 5 mps 716 mmHg 68%
    18:00 +6°C° 0 mm 4 mps 716 mmHg 71%
    19:00 +6°C° 0 mm 4 mps 717 mmHg 74%
    20:00 +5°C° 0 mm 4 mps 717 mmHg 75%
    21:00 +5°C° 0 mm 3 mps 717 mmHg 77%
    22:00 +5°C° 0 mm 3 mps 717 mmHg 78%
    23:00 +4°C° 0 mm 3 mps 717 mmHg 79%

    19 December, Wednesday

    Time Temperature Precipitation Wind Pressure Humidity
    00:00 +4°C° 0 mm 3 mps 717 mmHg 81%
    01:00 +4°C° 0 mm 3 mps 717 mmHg 82%
    02:00 +5°C° 0 mm 2 mps 717 mmHg 82%
    03:00 +5°C° 0 mm 2 mps 717 mmHg 83%
    04:00 +5°C° 0 mm 2 mps 717 mmHg 83%
    05:00 +4°C° 0 mm 2 mps 718 mmHg 82%
    06:00 +4°C° 0 mm 2 mps 718 mmHg 81%
    07:00 +4°C° 0 mm 2 mps 718 mmHg 79%
    08:00 +7°C° 0 mm 1 mps 719 mmHg 70%
    09:00 +9°C° 0 mm 1 mps 719 mmHg 60%
    10:00 +11°C° 0 mm 1 mps 720 mmHg 51%
    11:00 +12°C° 0 mm 1 mps 719 mmHg 48%
    12:00 +13°C° 0 mm 1 mps 719 mmHg 45%
    13:00 +14°C° 0 mm 1 mps 719 mmHg 42%
    14:00 +14°C° 0 mm 1 mps 719 mmHg 46%
    15:00 +13°C° 0 mm 2 mps 718 mmHg 51%
    16:00 +12°C° 0 mm 2 mps 718 mmHg 56%
    17:00 +10°C° 0 mm 2 mps 718 mmHg 60%
    18:00 +9°C° 0 mm 2 mps 718 mmHg 64%
    19:00 +7°C° 0 mm 2 mps 718 mmHg 68%
    20:00 +7°C° 0 mm 2 mps 718 mmHg 68%
    21:00 +7°C° 0 mm 2 mps 718 mmHg 67%
    22:00 +7°C° 0 mm 2 mps 717 mmHg 66%
    23:00 +7°C° 0 mm 2 mps 717 mmHg 64%

    20 December, Thursday

    Time Temperature Precipitation Wind Pressure Humidity
    00:00 +7°C° 0 mm 2 mps 717 mmHg 62%
    01:00 +7°C° 0 mm 3 mps 717 mmHg 60%
    02:00 +7°C° 0 mm 2 mps 717 mmHg 63%
    03:00 +8°C° 0 mm 2 mps 716 mmHg 66%
    04:00 +8°C° 0 mm 2 mps 716 mmHg 69%
    05:00 +8°C° 0 mm 2 mps 716 mmHg 72%
    06:00 +8°C° 0 mm 2 mps 716 mmHg 76%
    07:00 +8°C° 0 mm 2 mps 716 mmHg 79%
    08:00 +9°C° 0 mm 2 mps 716 mmHg 76%
    09:00 +11°C° 0 mm 3 mps 717 mmHg 74%
    10:00 +12°C° 0 mm 3 mps 717 mmHg 72%
    11:00 +12°C° 0.3 mm 3 mps 716 mmHg 72%
    12:00 +12°C° 0.3 mm 3 mps 716 mmHg 72%
    13:00 +12°C° 0.3 mm 4 mps 716 mmHg 73%
    14:00 +12°C° 0.8 mm 3 mps 716 mmHg 76%
    15:00 +11°C° 0.8 mm 3 mps 716 mmHg 79%
    16:00 +11°C° 0.8 mm 3 mps 716 mmHg 82%
    17:00 +10°C° 0.1 mm 3 mps 716 mmHg 83%
    18:00 +10°C° 0.1 mm 3 mps 716 mmHg 84%
    19:00 +9°C° 0.1 mm 3 mps 716 mmHg 85%
    20:00 +8°C° 0 mm 3 mps 716 mmHg 85%
    21:00 +8°C° 0 mm 3 mps 716 mmHg 85%
    22:00 +7°C° 0 mm 3 mps 717 mmHg 86%
    23:00 +7°C° 0 mm 3 mps 717 mmHg 86%
    Show more